Retour au catalogue

ARIANE 44LP DEB

LostHEO
NORAD 41118·DEBRIS·🇫🇷 France

Lancé Mar 2, 1991 depuis Guiana Space Centre

Loading…

Prochains Passages (prochaines 24 heures)

TLE

PériméSource: Space-Track

Époque: Jan 11, 2026, 05:22 UTC

1 41118U 91015Q   26011.22430512  .00000087  00000-0  11338-2 0  9993
2 41118   3.5736 189.5911 6654507   6.7141 273.4789  2.84252692125869

Suivez ARIANE 44LP DEB en temps réel avec AllMySat

Download on the App Store